Tracking 29892 objects as of 21-Nov-2024
HD Live streaming from Space Station
objects crossing your sky now

ONEWEB-0124

Track ONEWEB-0124 now!
10-day predictions
ONEWEB-0124 is classified as:


NORAD ID: 47270
Int'l Code: 2020-100N
Perigee: 1,219.5 km
Apogee: 1,222.2 km
Inclination: 87.9 °
Period: 109.7 minutes
Semi major axis: 7591 km
RCS: Unknown
Launch date: December 18, 2020
Source: United Kingdom (UK)
Launch site: VOSTOCHNY COSMODROME (VOSTO)
Your satellite tracking list
Your tracking list is empty




NASA's NSSDC Master Catalog

Two Line Element Set (TLE):
1 47270U 20100N   24325.81668611 -.00000284  00000-0 -82489-3 0  9996
2 47270  87.8858 104.8581 0001737  94.4076 265.7251 13.12442370189363
Source of the keplerian elements: AFSPC